"Sample Date","Sample Time","Sample Value","Units","Flow Rate","Sample Interval","Number Channels","Micron Size 0","Counts/Channel 0","Micron Size 1","Counts/Channel 1","Micron Size 2","Counts/Channel 2","Micron Size 3","Counts/Channel 3","Micron Size 4","Counts/Channel 4","Micron Size 5","Counts/Channel 5","Micron Size 6","Counts/Channel 6","Micron Size 7","Counts/Channel 7","Micron Size 8","Counts/Channel 8","Micron Size 9","Counts/Channel 9","Micron Size 10","Counts/Channel 10","Micron Size 11","Counts/Channel 11","Micron Size 12","Counts/Channel 12","Micron Size 13","Counts/Channel 13","Micron Size 14","Counts/Channel 14","Micron Size 15","Counts/Channel 15","Micron Size 16","Counts/Channel 16","Micron Size 17","Counts/Channel 17","Micron Size 18","Counts/Channel 18","Micron Size 19","Counts/Channel 19","Micron Size 20","Counts/Channel 20","Micron Size 21","Counts/Channel 21","Micron Size 22","Counts/Channel 22","Micron Size 23","Counts/Channel 23","Micron Size 24","Counts/Channel 24","Micron Size 25","Counts/Channel 25","Micron Size 26","Counts/Channel 26","Micron Size 27","Counts/Channel 27","Micron Size 28","Counts/Channel 28","Micron Size 29","Counts/Channel 29","Micron Size 30","Counts/Channel 30","Micron Size 31","Counts/Channel 31"
"03/08/08","06:00:02",4517.000,"cc",28253.477,6.00,6,0.100,3933.000,0.200,439.000,0.300,97.000,0.500,45.000,1.000,3.000,5.000,0
"03/08/08","06:00:08",4724.000,"cc",28273.734,6.00,6,0.100,4199.000,0.200,440.000,0.300,65.000,0.500,19.000,1.000,1.000,5.000,0
"03/08/08","06:00:14",16219.000,"cc",28315.045,6.00,6,0.100,14519.000,0.200,1572.000,0.300,95.000,0.500,29.000,1.000,4.000,5.000,0
"03/08/08","06:00:20",24988.000,"cc",28362.348,6.00,6,0.100,22330.000,0.200,2451.000,0.300,153.000,0.500,51.000,1.000,3.000,5.000,0
"03/08/08","06:00:26",23052.000,"cc",28279.500,6.00,6,0.100,20626.000,0.200,2240.000,0.300,141.000,0.500,41.000,1.000,4.000,5.000,0
"03/08/08","06:00:32",4865.000,"cc",28294.596,6.00,6,0.100,4280.000,0.200,463.000,0.300,80.000,0.500,39.000,1.000,3.000,5.000,0
"03/08/08","06:00:38",4106.000,"cc",28311.156,6.00,6,0.100,3616.000,0.200,380.000,0.300,68.000,0.500,38.000,1.000,4.000,5.000,0
"03/08/08","06:00:44",4416.000,"cc",28380.330,6.00,6,0.100,3787.000,0.200,444.000,0.300,117.000,0.500,61.000,1.000,7.000,5.000,0
"03/08/08","06:00:50",4394.000,"cc",28306.420,6.00,6,0.100,3807.000,0.200,442.000,0.300,95.000,0.500,49.000,1.000,1.000,5.000,0
"03/08/08","06:00:56",4408.000,"cc",28376.406,6.00,6,0.100,3825.000,0.200,445.000,0.300,88.000,0.500,46.000,1.000,4.000,5.000,0
"03/08/08","06:01:02",4133.000,"cc",28276.592,6.00,6,0.100,3620.000,0.200,402.000,0.300,81.000,0.500,27.000,1.000,3.000,5.000,0
"03/08/08","06:01:08",4804.000,"cc",28340.875,6.00,6,0.100,4234.000,0.200,446.000,0.300,89.000,0.500,33.000,1.000,2.000,5.000,0
"03/08/08","06:01:14",3910.000,"cc",28336.147,6.00,6,0.100,3466.000,0.200,354.000,0.300,63.000,0.500,24.000,1.000,3.000,5.000,0
"03/08/08","06:01:20",6013.000,"cc",28281.488,6.00,6,0.100,5295.000,0.200,621.000,0.300,64.000,0.500,28.000,1.000,5.000,5.000,0
"03/08/08","06:01:26",4889.000,"cc",28312.758,6.00,6,0.100,4272.000,0.200,509.000,0.300,80.000,0.500,28.000,1.000,0,5.000,0
"03/08/08","06:01:32",3604.000,"cc",28382.680,6.00,6,0.100,3122.000,0.200,359.000,0.300,90.000,0.500,30.000,1.000,3.000,5.000,0
"03/08/08","06:01:38",3697.000,"cc",28279.754,6.00,6,0.100,3177.000,0.200,368.000,0.300,90.000,0.500,58.000,1.000,4.000,5.000,0
"03/08/08","06:01:44",3764.000,"cc",28328.912,6.00,6,0.100,3200.000,0.200,406.000,0.300,101.000,0.500,47.000,1.000,10.000,5.000,0
"03/08/08","06:01:50",3760.000,"cc",28202.713,6.00,6,0.100,3312.000,0.200,344.000,0.300,73.000,0.500,29.000,1.000,2.000,5.000,0
"03/08/08","06:01:56",4218.000,"cc",28390.863,6.00,6,0.100,3720.000,0.200,409.000,0.300,65.000,0.500,23.000,1.000,1.000,5.000,0
"03/08/08","06:02:02",3938.000,"cc",28345.486,6.00,6,0.100,3517.000,0.200,333.000,0.300,57.000,0.500,31.000,1.000,0,5.000,0
"03/08/08","06:02:08",3338.000,"cc",28372.680,6.00,6,0.100,2879.000,0.200,327.000,0.300,95.000,0.500,36.000,1.000,1.000,5.000,0
"03/08/08","06:02:14",3229.000,"cc",28350.096,6.00,6,0.100,2762.000,0.200,324.000,0.300,90.000,0.500,50.000,1.000,3.000,5.000,0
"03/08/08","06:02:20",3553.000,"cc",28313.828,6.00,6,0.100,3048.000,0.200,340.000,0.300,112.000,0.500,53.000,1.000,0,5.000,0
"03/08/08","06:02:26",3647.000,"cc",28330.436,6.00,6,0.100,3075.000,0.200,383.000,0.300,118.000,0.500,63.000,1.000,8.000,5.000,0
"03/08/08","06:02:32",3374.000,"cc",28241.742,6.00,6,0.100,2884.000,0.200,362.000,0.300,87.000,0.500,39.000,1.000,2.000,5.000,0
"03/08/08","06:02:38",3207.000,"cc",28325.326,6.00,6,0.100,2796.000,0.200,302.000,0.300,79.000,0.500,26.000,1.000,4.000,5.000,0
"03/08/08","06:02:44",3350.000,"cc",28250.326,6.00,6,0.100,2884.000,0.200,340.000,0.300,83.000,0.500,39.000,1.000,4.000,5.000,0
"03/08/08","06:02:50",3153.000,"cc",28387.391,6.00,6,0.100,2693.000,0.200,343.000,0.300,76.000,0.500,39.000,1.000,2.000,5.000,0
"03/08/08","06:02:56",3330.000,"cc",28278.065,6.00,6,0.100,2872.000,0.200,331.000,0.300,95.000,0.500,31.000,1.000,1.000,5.000,0
"03/08/08","06:03:02",3437.000,"cc",28291.783,6.00,6,0.100,2939.000,0.200,350.000,0.300,106.000,0.500,40.000,1.000,2.000,5.000,0
"03/08/08","06:03:08",3394.000,"cc",28384.195,6.00,6,0.100,2812.000,0.200,369.000,0.300,147.000,0.500,61.000,1.000,5.000,5.000,0
"03/08/08","06:03:14",3246.000,"cc",28335.145,6.00,6,0.100,2724.000,0.200,379.000,0.300,98.000,0.500,43.000,1.000,2.000,5.000,0
"03/08/08","06:03:20",3084.000,"cc",28356.639,6.00,6,0.100,2639.000,0.200,325.000,0.300,84.000,0.500,32.000,1.000,4.000,5.000,0
"03/08/08","06:03:26",3005.000,"cc",28364.418,6.00,6,0.100,2578.000,0.200,291.000,0.300,98.000,0.500,38.000,1.000,0,5.000,0
"03/08/08","06:03:32",2730.000,"cc",28328.887,6.00,6,0.100,2342.000,0.200,292.000,0.300,63.000,0.500,31.000,1.000,2.000,5.000,0
"03/08/08","06:03:38",2712.000,"cc",28290.074,6.00,6,0.100,2382.000,0.200,251.000,0.300,65.000,0.500,13.000,1.000,1.000,5.000,0
"03/08/08","06:03:44",2865.000,"cc",28266.504,6.00,6,0.100,2486.000,0.200,281.000,0.300,64.000,0.500,31.000,1.000,3.000,5.000,0
"03/08/08","06:03:50",2638.000,"cc",28277.488,6.00,6,0.100,2300.000,0.200,260.000,0.300,59.000,0.500,18.000,1.000,1.000,5.000,0
"03/08/08","06:03:56",2868.000,"cc",28346.391,6.00,6,0.100,2474.000,0.200,284.000,0.300,77.000,0.500,30.000,1.000,3.000,5.000,0
"03/08/08","06:04:02",2832.000,"cc",28411.072,6.00,6,0.100,2415.000,0.200,313.000,0.300,70.000,0.500,31.000,1.000,3.000,5.000,0
"03/08/08","06:04:08",2734.000,"cc",28347.877,6.00,6,0.100,2354.000,0.200,290.000,0.300,67.000,0.500,23.000,1.000,0,5.000,0
"03/08/08","06:04:14",2883.000,"cc",28233.906,6.00,6,0.100,2426.000,0.200,318.000,0.300,102.000,0.500,34.000,1.000,3.000,5.000,0
"03/08/08","06:04:20",2693.000,"cc",28267.611,6.00,6,0.100,2254.000,0.200,327.000,0.300,82.000,0.500,29.000,1.000,1.000,5.000,0
"03/08/08","06:04:26",2534.000,"cc",28315.477,6.00,6,0.100,2202.000,0.200,247.000,0.300,58.000,0.500,25.000,1.000,2.000,5.000,0
"03/08/08","06:04:32",2635.000,"cc",28432.303,6.00,6,0.100,2266.000,0.200,274.000,0.300,73.000,0.500,22.000,1.000,0,5.000,0
"03/08/08","06:04:38",2557.000,"cc",28312.381,6.00,6,0.100,2209.000,0.200,246.000,0.300,75.000,0.500,22.000,1.000,5.000,5.000,0
"03/08/08","06:04:44",2484.000,"cc",28255.215,6.00,6,0.100,2123.000,0.200,264.000,0.300,68.000,0.500,28.000,1.000,1.000,5.000,0
"03/08/08","06:04:50",2446.000,"cc",28268.992,6.00,6,0.100,2115.000,0.200,246.000,0.300,58.000,0.500,26.000,1.000,1.000,5.000,0
"03/08/08","06:04:56",2837.000,"cc",28272.928,6.00,6,0.100,2388.000,0.200,333.000,0.300,75.000,0.500,38.000,1.000,3.000,5.000,0
"03/08/08","06:05:02",2681.000,"cc",28346.150,6.00,6,0.100,2260.000,0.200,284.000,0.300,94.000,0.500,39.000,1.000,4.000,5.000,0
"03/08/08","06:05:08",2569.000,"cc",28326.297,6.00,6,0.100,2171.000,0.200,274.000,0.300,85.000,0.500,35.000,1.000,4.000,5.000,0
"03/08/08","06:05:14",3156.000,"cc",28286.426,6.00,6,0.100,2590.000,0.200,381.000,0.300,116.000,0.500,66.000,1.000,3.000,5.000,0
"03/08/08","06:05:20",2814.000,"cc",28317.412,6.00,6,0.100,2329.000,0.200,332.000,0.300,108.000,0.500,40.000,1.000,5.000,5.000,0
"03/08/08","06:05:26",2751.000,"cc",28311.871,6.00,6,0.100,2309.000,0.200,314.000,0.300,96.000,0.500,30.000,1.000,2.000,5.000,0
"03/08/08","06:05:32",4033.000,"cc",28352.107,6.00,6,0.100,3511.000,0.200,392.000,0.300,92.000,0.500,38.000,1.000,0,5.000,0
"03/08/08","06:05:38",2392.000,"cc",28352.723,6.00,6,0.100,2059.000,0.200,255.000,0.300,52.000,0.500,23.000,1.000,3.000,5.000,0
"03/08/08","06:05:44",2386.000,"cc",28237.602,6.00,6,0.100,1977.000,0.200,266.000,0.300,101.000,0.500,37.000,1.000,5.000,5.000,0
"03/08/08","06:05:50",2621.000,"cc",28273.943,6.00,6,0.100,2212.000,0.200,275.000,0.300,90.000,0.500,41.000,1.000,3.000,5.000,0
"03/08/08","06:05:56",2491.000,"cc",28301.170,6.00,6,0.100,2124.000,0.200,251.000,0.300,74.000,0.500,38.000,1.000,4.000,5.000,0
"03/08/08","06:06:02",2477.000,"cc",28398.881,6.00,6,0.100,2046.000,0.200,302.000,0.300,85.000,0.500,43.000,1.000,1.000,5.000,0
"03/08/08","06:06:08",2588.000,"cc",28324.916,6.00,6,0.100,2126.000,0.200,321.000,0.300,95.000,0.500,42.000,1.000,4.000,5.000,0
"03/08/08","06:06:14",2311.000,"cc",28306.686,6.00,6,0.100,2009.000,0.200,217.000,0.300,58.000,0.500,27.000,1.000,0,5.000,0
"03/08/08","06:06:20",2404.000,"cc",28320.457,6.00,6,0.100,2050.000,0.200,244.000,0.300,75.000,0.500,33.000,1.000,2.000,5.000,0
"03/08/08","06:06:26",2188.000,"cc",28410.818,6.00,6,0.100,1897.000,0.200,212.000,0.300,58.000,0.500,19.000,1.000,2.000,5.000,0
"03/08/08","06:06:32",2401.000,"cc",28184.443,6.00,6,0.100,2036.000,0.200,259.000,0.300,56.000,0.500,47.000,1.000,3.000,5.000,0
"03/08/08","06:06:38",2279.000,"cc",28267.830,6.00,6,0.100,1945.000,0.200,231.000,0.300,72.000,0.500,30.000,1.000,1.000,5.000,0
"03/08/08","06:06:44",2400.000,"cc",28358.188,6.00,6,0.100,2045.000,0.200,242.000,0.300,79.000,0.500,31.000,1.000,3.000,5.000,0
"03/08/08","06:06:50",2253.000,"cc",28340.522,6.00,6,0.100,1890.000,0.200,243.000,0.300,81.000,0.500,37.000,1.000,2.000,5.000,0
"03/08/08","06:06:56",2256.000,"cc",28390.057,6.00,6,0.100,1889.000,0.200,254.000,0.300,80.000,0.500,30.000,1.000,3.000,5.000,0
"03/08/08","06:07:02",2165.000,"cc",28279.481,6.00,6,0.100,1797.000,0.200,271.000,0.300,77.000,0.500,20.000,1.000,0,5.000,0
"03/08/08","06:07:08",2293.000,"cc",28307.633,6.00,6,0.100,1920.000,0.200,263.000,0.300,90.000,0.500,18.000,1.000,2.000,5.000,0
"03/08/08","06:07:14",2169.000,"cc",28394.910,6.00,6,0.100,1831.000,0.200,235.000,0.300,66.000,0.500,36.000,1.000,1.000,5.000,0
"03/08/08","06:07:20",2065.000,"cc",28273.897,6.00,6,0.100,1740.000,0.200,235.000,0.300,67.000,0.500,22.000,1.000,1.000,5.000,0
"03/08/08","06:07:26",1783.000,"cc",28308.842,6.00,6,0.100,1559.000,0.200,186.000,0.300,29.000,0.500,8.000,1.000,1.000,5.000,0
"03/08/08","06:07:32",1971.000,"cc",28300.924,6.00,6,0.100,1722.000,0.200,197.000,0.300,39.000,0.500,13.000,1.000,0,5.000,0
"03/08/08","06:07:38",2072.000,"cc",28308.604,6.00,6,0.100,1770.000,0.200,217.000,0.300,67.000,0.500,17.000,1.000,1.000,5.000,0
"03/08/08","06:07:44",2117.000,"cc",28402.670,6.00,6,0.100,1795.000,0.200,222.000,0.300,74.000,0.500,23.000,1.000,3.000,5.000,0
"03/08/08","06:07:50",2181.000,"cc",28268.877,6.00,6,0.100,1869.000,0.200,209.000,0.300,70.000,0.500,31.000,1.000,2.000,5.000,0
"03/08/08","06:07:56",1953.000,"cc",28294.775,6.00,6,0.100,1686.000,0.200,191.000,0.300,64.000,0.500,12.000,1.000,0,5.000,0
"03/08/08","06:08:02",2305.000,"cc",28265.645,6.00,6,0.100,1845.000,0.200,328.000,0.300,107.000,0.500,23.000,1.000,2.000,5.000,0
"03/08/08","06:08:08",2043.000,"cc",28352.377,6.00,6,0.100,1761.000,0.200,199.000,0.300,72.000,0.500,11.000,1.000,0,5.000,0
"03/08/08","06:08:14",2401.000,"cc",28292.008,6.00,6,0.100,1928.000,0.200,329.000,0.300,108.000,0.500,34.000,1.000,2.000,5.000,0
"03/08/08","06:08:20",1831.000,"cc",28332.768,6.00,6,0.100,1571.000,0.200,210.000,0.300,42.000,0.500,7.000,1.000,1.000,5.000,0
"03/08/08","06:08:26",1769.000,"cc",28327.330,6.00,6,0.100,1530.000,0.200,181.000,0.300,50.000,0.500,8.000,1.000,0,5.000,0
"03/08/08","06:08:32",1970.000,"cc",28245.063,6.00,6,0.100,1670.000,0.200,228.000,0.300,52.000,0.500,20.000,1.000,0,5.000,0
"03/08/08","06:08:38",1896.000,"cc",28297.846,6.00,6,0.100,1624.000,0.200,198.000,0.300,55.000,0.500,19.000,1.000,0,5.000,0
"03/08/08","06:08:44",1805.000,"cc",28349.027,6.00,6,0.100,1508.000,0.200,215.000,0.300,63.000,0.500,17.000,1.000,2.000,5.000,0
"03/08/08","06:08:50",1821.000,"cc",28303.660,6.00,6,0.100,1507.000,0.200,214.000,0.300,67.000,0.500,32.000,1.000,1.000,5.000,0
"03/08/08","06:08:56",1590.000,"cc",28392.172,6.00,6,0.100,1354.000,0.200,171.000,0.300,58.000,0.500,7.000,1.000,0,5.000,0
"03/08/08","06:09:02",1675.000,"cc",28317.709,6.00,6,0.100,1430.000,0.200,181.000,0.300,50.000,0.500,13.000,1.000,1.000,5.000,0
"03/08/08","06:09:08",1647.000,"cc",28298.238,6.00,6,0.100,1398.000,0.200,174.000,0.300,55.000,0.500,19.000,1.000,1.000,5.000,0
"03/08/08","06:09:14",1672.000,"cc",28336.822,6.00,6,0.100,1417.000,0.200,187.000,0.300,48.000,0.500,19.000,1.000,1.000,5.000,0
"03/08/08","06:09:20",1974.000,"cc",28325.840,6.00,6,0.100,1651.000,0.200,218.000,0.300,77.000,0.500,26.000,1.000,2.000,5.000,0
"03/08/08","06:09:26",1863.000,"cc",28275.486,6.00,6,0.100,1526.000,0.200,234.000,0.300,75.000,0.500,24.000,1.000,4.000,5.000,0
"03/08/08","06:09:32",1789.000,"cc",28334.311,6.00,6,0.100,1489.000,0.200,214.000,0.300,65.000,0.500,19.000,1.000,2.000,5.000,0
"03/08/08","06:09:38",1728.000,"cc",28297.779,6.00,6,0.100,1423.000,0.200,226.000,0.300,50.000,0.500,26.000,1.000,3.000,5.000,0
"03/08/08","06:09:44",2114.000,"cc",28330.898,6.00,6,0.100,1712.000,0.200,270.000,0.300,89.000,0.500,39.000,1.000,4.000,5.000,0
"03/08/08","06:09:50",2481.000,"cc",28402.994,6.00,6,0.100,1883.000,0.200,376.000,0.300,164.000,0.500,56.000,1.000,2.000,5.000,0
"03/08/08","06:09:56",1571.000,"cc",28347.049,6.00,6,0.100,1340.000,0.200,167.000,0.300,45.000,0.500,19.000,1.000,0,5.000,0
"03/08/08","06:10:02",1495.000,"cc",28245.297,6.00,6,0.100,1276.000,0.200,153.000,0.300,51.000,0.500,15.000,1.000,0,5.000,0
"03/08/08","06:10:08",1606.000,"cc",28308.570,6.00,6,0.100,1331.000,0.200,200.000,0.300,59.000,0.500,13.000,1.000,3.000,5.000,0
"03/08/08","06:10:14",1642.000,"cc",28229.561,6.00,6,0.100,1395.000,0.200,172.000,0.300,63.000,0.500,12.000,1.000,0,5.000,0
"03/08/08","06:10:20",1781.000,"cc",28332.889,6.00,6,0.100,1459.000,0.200,228.000,0.300,67.000,0.500,26.000,1.000,1.000,5.000,0
"03/08/08","06:10:26",1744.000,"cc",28364.818,6.00,6,0.100,1400.000,0.200,223.000,0.300,84.000,0.500,37.000,1.000,0,5.000,0
"03/08/08","06:10:32",1486.000,"cc",28304.391,6.00,6,0.100,1256.000,0.200,168.000,0.300,46.000,0.500,14.000,1.000,2.000,5.000,0
"03/08/08","06:10:38",1528.000,"cc",28352.275,6.00,6,0.100,1339.000,0.200,144.000,0.300,33.000,0.500,12.000,1.000,0,5.000,0
"03/08/08","06:10:44",1785.000,"cc",28252.330,6.00,6,0.100,1505.000,0.200,216.000,0.300,49.000,0.500,15.000,1.000,0,5.000,0
"03/08/08","06:10:50",1680.000,"cc",28288.971,6.00,6,0.100,1445.000,0.200,177.000,0.300,39.000,0.500,18.000,1.000,1.000,5.000,0
"03/08/08","06:10:56",1517.000,"cc",28419.920,6.00,6,0.100,1277.000,0.200,186.000,0.300,48.000,0.500,5.000,1.000,1.000,5.000,0
"03/08/08","06:11:02",1653.000,"cc",28335.443,6.00,6,0.100,1341.000,0.200,212.000,0.300,77.000,0.500,20.000,1.000,3.000,5.000,0
"03/08/08","06:11:08",1604.000,"cc",28286.238,6.00,6,0.100,1319.000,0.200,182.000,0.300,71.000,0.500,31.000,1.000,1.000,5.000,0
"03/08/08","06:11:14",1778.000,"cc",28306.522,6.00,6,0.100,1439.000,0.200,232.000,0.300,83.000,0.500,23.000,1.000,1.000,5.000,0
"03/08/08","06:11:20",2183.000,"cc",28290.897,6.00,6,0.100,1775.000,0.200,279.000,0.300,89.000,0.500,34.000,1.000,6.000,5.000,0
"03/08/08","06:11:26",1677.000,"cc",28420.000,6.00,6,0.100,1402.000,0.200,195.000,0.300,59.000,0.500,16.000,1.000,5.000,5.000,0
"03/08/08","06:11:32",1559.000,"cc",28392.104,6.00,6,0.100,1304.000,0.200,180.000,0.300,51.000,0.500,22.000,1.000,2.000,5.000,0
"03/08/08","06:11:38",1470.000,"cc",28217.732,6.00,6,0.100,1224.000,0.200,182.000,0.300,46.000,0.500,15.000,1.000,3.000,5.000,0
"03/08/08","06:11:44",1751.000,"cc",28316.299,6.00,6,0.100,1426.000,0.200,227.000,0.300,65.000,0.500,31.000,1.000,2.000,5.000,0
"03/08/08","06:11:50",1616.000,"cc",28339.981,6.00,6,0.100,1358.000,0.200,173.000,0.300,67.000,0.500,17.000,1.000,1.000,5.000,0
"03/08/08","06:11:56",1415.000,"cc",28341.830,6.00,6,0.100,1204.000,0.200,154.000,0.300,49.000,0.500,8.000,1.000,0,5.000,0
"03/08/08","06:12:02",1630.000,"cc",28271.816,6.00,6,0.100,1370.000,0.200,187.000,0.300,43.000,0.500,28.000,1.000,2.000,5.000,0
"03/08/08","06:12:08",1639.000,"cc",28341.637,6.00,6,0.100,1328.000,0.200,203.000,0.300,78.000,0.500,30.000,1.000,0,5.000,0
"03/08/08","06:12:14",1604.000,"cc",28307.002,6.00,6,0.100,1321.000,0.200,190.000,0.300,70.000,0.500,22.000,1.000,1.000,5.000,0
"03/08/08","06:12:20",1610.000,"cc",28324.762,6.00,6,0.100,1322.000,0.200,198.000,0.300,60.000,0.500,29.000,1.000,1.000,5.000,0
"03/08/08","06:12:26",1553.000,"cc",28260.494,6.00,6,0.100,1328.000,0.200,158.000,0.300,53.000,0.500,14.000,1.000,0,5.000,0
"03/08/08","06:12:32",1612.000,"cc",28386.373,6.00,6,0.100,1282.000,0.200,215.000,0.300,83.000,0.500,29.000,1.000,3.000,5.000,0
"03/08/08","06:12:38",1414.000,"cc",28251.270,6.00,6,0.100,1188.000,0.200,147.000,0.300,57.000,0.500,21.000,1.000,1.000,5.000,0
"03/08/08","06:12:44",1709.000,"cc",28373.211,6.00,6,0.100,1381.000,0.200,209.000,0.300,75.000,0.500,37.000,1.000,7.000,5.000,0
"03/08/08","06:12:50",1578.000,"cc",28332.852,6.00,6,0.100,1278.000,0.200,202.000,0.300,63.000,0.500,34.000,1.000,1.000,5.000,0
"03/08/08","06:12:56",1621.000,"cc",28298.076,6.00,6,0.100,1335.000,0.200,204.000,0.300,56.000,0.500,23.000,1.000,3.000,5.000,0
"03/08/08","06:13:02",1946.000,"cc",28254.633,6.00,6,0.100,1643.000,0.200,218.000,0.300,65.000,0.500,18.000,1.000,2.000,5.000,0
"03/08/08","06:13:08",2181.000,"cc",28278.240,6.00,6,0.100,1718.000,0.200,303.000,0.300,116.000,0.500,39.000,1.000,5.000,5.000,0
"03/08/08","06:13:14",1798.000,"cc",28396.150,6.00,6,0.100,1450.000,0.200,215.000,0.300,98.000,0.500,31.000,1.000,4.000,5.000,0
"03/08/08","06:13:20",1517.000,"cc",28330.762,6.00,6,0.100,1210.000,0.200,180.000,0.300,80.000,0.500,41.000,1.000,6.000,5.000,0
"03/08/08","06:13:26",1455.000,"cc",28201.182,6.00,6,0.100,1208.000,0.200,159.000,0.300,64.000,0.500,20.000,1.000,4.000,5.000,0
"03/08/08","06:13:32",1451.000,"cc",28326.074,6.00,6,0.100,1228.000,0.200,163.000,0.300,44.000,0.500,16.000,1.000,0,5.000,0
"03/08/08","06:13:38",1432.000,"cc",28292.703,6.00,6,0.100,1153.000,0.200,174.000,0.300,65.000,0.500,37.000,1.000,3.000,5.000,0
"03/08/08","06:13:44",1546.000,"cc",28272.803,6.00,6,0.100,1246.000,0.200,194.000,0.300,66.000,0.500,37.000,1.000,3.000,5.000,0
"03/08/08","06:13:50",2198.000,"cc",28418.002,6.00,6,0.100,1694.000,0.200,302.000,0.300,141.000,0.500,53.000,1.000,8.000,5.000,0
"03/08/08","06:13:56",1644.000,"cc",28361.904,6.00,6,0.100,1327.000,0.200,199.000,0.300,82.000,0.500,34.000,1.000,2.000,5.000,0
"03/08/08","06:14:02",1913.000,"cc",28276.484,6.00,6,0.100,1595.000,0.200,222.000,0.300,65.000,0.500,28.000,1.000,3.000,5.000,0
"03/08/08","06:14:08",1744.000,"cc",28319.772,6.00,6,0.100,1407.000,0.200,202.000,0.300,91.000,0.500,41.000,1.000,3.000,5.000,0
"03/08/08","06:14:14",1461.000,"cc",28341.318,6.00,6,0.100,1217.000,0.200,178.000,0.300,51.000,0.500,13.000,1.000,2.000,5.000,0
"03/08/08","06:14:20",1579.000,"cc",28303.240,6.00,6,0.100,1299.000,0.200,191.000,0.300,62.000,0.500,24.000,1.000,3.000,5.000,0
"03/08/08","06:14:26",1653.000,"cc",28323.289,6.00,6,0.100,1364.000,0.200,204.000,0.300,58.000,0.500,25.000,1.000,2.000,5.000,0
"03/08/08","06:14:32",3667.000,"cc",28317.047,6.00,6,0.100,3014.000,0.200,439.000,0.300,145.000,0.500,60.000,1.000,9.000,5.000,0
"03/08/08","06:14:38",1500.000,"cc",28455.631,6.00,6,0.100,1199.000,0.200,195.000,0.300,73.000,0.500,32.000,1.000,1.000,5.000,0
"03/08/08","06:14:44",1556.000,"cc",28288.416,6.00,6,0.100,1224.000,0.200,212.000,0.300,83.000,0.500,36.000,1.000,1.000,5.000,0
"03/08/08","06:14:50",1470.000,"cc",28332.338,6.00,6,0.100,1195.000,0.200,199.000,0.300,57.000,0.500,17.000,1.000,2.000,5.000,0
"03/08/08","06:14:56",1377.000,"cc",28367.967,6.00,6,0.100,1160.000,0.200,145.000,0.300,54.000,0.500,18.000,1.000,0,5.000,0
"03/08/08","06:15:02",1319.000,"cc",28218.629,6.00,6,0.100,1067.000,0.200,178.000,0.300,56.000,0.500,16.000,1.000,2.000,5.000,0
"03/08/08","06:15:08",1502.000,"cc",28267.344,6.00,6,0.100,1268.000,0.200,172.000,0.300,51.000,0.500,11.000,1.000,0,5.000,0
"03/08/08","06:15:14",1665.000,"cc",28319.815,6.00,6,0.100,1288.000,0.200,245.000,0.300,93.000,0.500,33.000,1.000,6.000,5.000,0
"03/08/08","06:15:20",1366.000,"cc",28335.016,6.00,6,0.100,1101.000,0.200,180.000,0.300,67.000,0.500,17.000,1.000,1.000,5.000,0
"03/08/08","06:15:26",1215.000,"cc",28339.959,6.00,6,0.100,1017.000,0.200,146.000,0.300,40.000,0.500,12.000,1.000,0,5.000,0
"03/08/08","06:15:32",1237.000,"cc",28237.066,6.00,6,0.100,1042.000,0.200,137.000,0.300,43.000,0.500,12.000,1.000,3.000,5.000,0
"03/08/08","06:15:38",1641.000,"cc",28282.598,6.00,6,0.100,1343.000,0.200,201.000,0.300,75.000,0.500,20.000,1.000,2.000,5.000,0
"03/08/08","06:15:44",1491.000,"cc",28379.090,6.00,6,0.100,1204.000,0.200,197.000,0.300,64.000,0.500,25.000,1.000,1.000,5.000,0
"03/08/08","06:15:50",1323.000,"cc",28420.820,6.00,6,0.100,1092.000,0.200,176.000,0.300,48.000,0.500,6.000,1.000,1.000,5.000,0
"03/08/08","06:15:56",1191.000,"cc",28334.570,6.00,6,0.100,1001.000,0.200,131.000,0.300,47.000,0.500,10.000,1.000,2.000,5.000,0
"03/08/08","06:16:02",1222.000,"cc",28342.244,6.00,6,0.100,987.000,0.200,169.000,0.300,49.000,0.500,16.000,1.000,1.000,5.000,0
"03/08/08","06:16:08",1292.000,"cc",28288.555,6.00,6,0.100,1060.000,0.200,147.000,0.300,62.000,0.500,20.000,1.000,3.000,5.000,0
"03/08/08","06:16:14",1572.000,"cc",28260.879,6.00,6,0.100,1247.000,0.200,222.000,0.300,71.000,0.500,31.000,1.000,1.000,5.000,0
"03/08/08","06:16:20",1637.000,"cc",28231.033,6.00,6,0.100,1326.000,0.200,206.000,0.300,75.000,0.500,28.000,1.000,2.000,5.000,0
"03/08/08","06:16:26",1449.000,"cc",28310.299,6.00,6,0.100,1187.000,0.200,181.000,0.300,62.000,0.500,19.000,1.000,0,5.000,0
"03/08/08","06:16:32",1454.000,"cc",28355.791,6.00,6,0.100,1132.000,0.200,208.000,0.300,82.000,0.500,30.000,1.000,2.000,5.000,0
"03/08/08","06:16:38",1253.000,"cc",28326.709,6.00,6,0.100,1016.000,0.200,157.000,0.300,60.000,0.500,20.000,1.000,0,5.000,0
"03/08/08","06:16:44",1340.000,"cc",28366.162,6.00,6,0.100,1102.000,0.200,166.000,0.300,45.000,0.500,25.000,1.000,2.000,5.000,0
"03/08/08","06:16:50",2681.000,"cc",28240.303,6.00,6,0.100,2145.000,0.200,371.000,0.300,114.000,0.500,47.000,1.000,4.000,5.000,0
"03/08/08","06:16:56",1502.000,"cc",28285.244,6.00,6,0.100,1137.000,0.200,248.000,0.300,92.000,0.500,23.000,1.000,2.000,5.000,0
"03/08/08","06:17:02",1352.000,"cc",28358.395,6.00,6,0.100,1112.000,0.200,180.000,0.300,43.000,0.500,16.000,1.000,1.000,5.000,0
"03/08/08","06:17:08",1591.000,"cc",28279.658,6.00,6,0.100,1223.000,0.200,238.000,0.300,104.000,0.500,25.000,1.000,1.000,5.000,0
"03/08/08","06:17:14",1663.000,"cc",28416.273,6.00,6,0.100,1233.000,0.200,244.000,0.300,119.000,0.500,61.000,1.000,6.000,5.000,0
"03/08/08","06:17:20",1198.000,"cc",28374.022,6.00,6,0.100,976.000,0.200,147.000,0.300,53.000,0.500,21.000,1.000,1.000,5.000,0
"03/08/08","06:17:26",941.000,"cc",28225.922,6.00,6,0.100,779.000,0.200,114.000,0.300,40.000,0.500,8.000,1.000,0,5.000,0
"03/08/08","06:17:32",1223.000,"cc",28300.990,6.00,6,0.100,1008.000,0.200,146.000,0.300,51.000,0.500,16.000,1.000,2.000,5.000,0
"03/08/08","06:17:38",1095.000,"cc",28339.619,6.00,6,0.100,913.000,0.200,122.000,0.300,46.000,0.500,12.000,1.000,2.000,5.000,0